Location: Northcutt
(34.7304°N, 84.4305°W)
Time: 11:12:18
(UTC+00:00)

A-11 Canister half - Pass Details

Date: 08 October 2022
Orbit: 1524 x 1685 km, 47.3° (Epoch: 30 November)

Event Time Altitude Azimuth Distance (km) Brightness Sun altitude
Rises 19:18:51 0° 241° (WSW) 4,688 12.3 41.2°
Reaches altitude 10° 19:21:55 10° 244° (WSW) 3,696 12.0 40.8°
Maximum altitude 19:31:12 72° 328° (NNW) 1,588 9.7 39.5°
Drops below altitude 10° 19:40:31 10° 53° (NE) 3,710 10.6 38.2°
Sets 19:43:37 0° 56° (NE) 4,707 11.1 37.7°
